Stations météo

Publicité
Ile Rousse, France (7753): Température de l'air & dewpoint: 25.10.2020 22:00:00 - 31.10.2020 22:00:00 (CET)Ile Rousse, France (7753): Vitesse du vent & gusts: 25.10.2020 22:00:00 - 31.10.2020 22:00:00 (CET)Ile Rousse, France (7753): Direction du vent: 25.10.2020 22:00:00 - 31.10.2020 22:00:00 (CET)Ile Rousse, France (7753): reduced air pressure: 25.10.2020 22:00:00 - 31.10.2020 22:00:00 (CET)Ile Rousse, France (7753): visibility: 25.10.2020 22:00:00 - 31.10.2020 22:00:00 (CET)Ile Rousse, France (7753): Quantités de précipitations: 25.10.2020 22:00:00 - 31.10.2020 22:00:00 (CET)
Date & Time tt [°C] td [°C] ff [km/h] ff [knt] fx [km/h] fx [knt] dd ppp [hPa] vv [km] rr [mm]
31.10.2020 22:00:00 15,4 13,4 15 8 21 12 SW 1024,0 - 0,0
31.10.2020 21:00:00 15,6 13,3 11 6 16 9 SW 1023,9 - 0,0
31.10.2020 20:00:00 15,6 13,6 12 7 18 10 WSW 1023,7 - 0,0
31.10.2020 19:00:00 15,9 13,7 11 6 20 11 WSW 1023,8 18 0,0
31.10.2020 18:00:00 15,9 13,7 13 7 22 12 WSW 1023,7 - 0,0
31.10.2020 17:00:00 16,1 13,6 10 5 18 10 W 1023,4 - 0,0
31.10.2020 16:00:00 16,5 13,6 9 5 21 11 W 1023,6 - 0,0
31.10.2020 15:00:00 16,7 13,0 13 7 23 12 W 1023,8 - 0,0
31.10.2020 14:00:00 17,1 13,0 13 7 20 11 W 1023,9 - 0,0
31.10.2020 13:00:00 17,4 12,9 8 4 15 8 WNW 1024,3 18 0,0
31.10.2020 12:00:00 17,2 12,5 6 3 11 6 N 1024,7 - 0,0
31.10.2020 11:00:00 17,1 12,6 5 3 16 8 NNW 1025,2 - 0,0
31.10.2020 10:00:00 16,6 12,7 8 5 14 7 W 1025,0 - 0,0
31.10.2020 09:00:00 16,4 12,9 3 1 9 5 WSW 1025,0 - 0,0
31.10.2020 08:00:00 15,9 12,8 3 2 5 3 SW 1024,7 - 0,0
31.10.2020 07:00:00 15,2 12,7 2 1 4 2 S 1024,4 15 0,0
31.10.2020 06:00:00 15,1 13,3 0 0 5 3 N 1024,1 - 0,0
31.10.2020 05:00:00 15,3 13,1 4 2 4 2 ENE 1024,4 - 0,0
31.10.2020 04:00:00 15,6 13,3 3 1 6 4 NNW 1024,4 15 0,0
31.10.2020 03:00:00 15,6 13,1 6 3 6 4 WSW 1024,5 - 0,0
31.10.2020 02:00:00 15,5 13,0 4 2 5 3 NW 1024,6 - 0,0
31.10.2020 01:00:00 15,7 12,6 0 0 8 4 N 1024,9 15 0,0
31.10.2020 00:00:00 15,5 12,4 4 2 6 3 E 1024,8 - 0,0
30.10.2020 23:00:00 15,7 13,0 5 3 8 4 ESE 1024,9 - 0,0
30.10.2020 22:00:00 15,9 13,0 7 4 9 5 ESE 1024,7 - 0,0
30.10.2020 21:00:00 16,1 12,6 7 4 9 5 ESE 1024,5 - 0,0
30.10.2020 20:00:00 15,8 12,5 8 4 13 7 ESE 1024,3 - 0,0
30.10.2020 19:00:00 16,0 13,5 10 6 13 7 ESE 1024,3 15 0,0
30.10.2020 18:00:00 16,1 13,9 11 6 13 7 ESE 1023,9 - 0,0
30.10.2020 17:00:00 16,9 14,0 8 5 13 7 E 1023,7 - 0,0
30.10.2020 16:00:00 17,4 14,5 9 5 14 7 ENE 1023,7 - 0,0
30.10.2020 15:00:00 17,1 14,4 7 4 14 7 NE 1023,5 - 0,0
30.10.2020 14:00:00 17,4 14,7 7 4 16 8 N 1023,5 - 0,0
30.10.2020 13:00:00 17,5 14,6 10 6 16 9 NNE 1023,6 15 0,0
30.10.2020 12:00:00 17,6 14,3 10 5 20 11 NE 1023,8 - 0,0
30.10.2020 11:00:00 17,7 11,0 8 4 13 7 ENE 1024,0 - 0,0
30.10.2020 10:00:00 16,7 12,0 3 2 9 5 NW 1023,9 - 0,0
30.10.2020 09:00:00 16,6 11,1 4 2 8 5 NE 1023,6 - 0,0
30.10.2020 08:00:00 15,6 10,4 2 1 9 5 ESE 1023,4 - 0,0
30.10.2020 07:00:00 15,6 9,5 9 5 16 9 WNW 1022,8 - 0,0
30.10.2020 06:00:00 15,0 10,4 13 7 18 10 WSW 1022,3 - 0,0
30.10.2020 05:00:00 15,8 8,8 5 3 16 8 SE 1021,8 - 0,0
30.10.2020 04:00:00 16,0 9,9 14 8 24 13 SE 1021,4 18 0,0
30.10.2020 03:00:00 15,3 9,9 11 6 15 8 ESE 1022,1 - 0,0
30.10.2020 02:00:00 16,1 10,2 3 2 9 5 NNE 1021,9 - 0,0
30.10.2020 01:00:00 16,0 9,9 7 4 11 6 WSW 1021,7 - 0,0
30.10.2020 00:00:00 15,5 10,3 6 4 10 5 W 1021,7 - 0,0
29.10.2020 23:00:00 16,5 9,9 10 5 18 10 S 1021,7 - 0,0
29.10.2020 22:00:00 16,0 11,0 10 6 14 8 SE 1021,8 - 0,0
29.10.2020 21:00:00 16,0 11,0 6 4 11 6 E 1021,3 - 0,0
29.10.2020 20:00:00 16,9 10,3 6 3 52 28 SSE 1020,7 - 0,0
29.10.2020 19:00:00 16,9 10,0 30 16 47 25 SW 1020,4 18 0,0
29.10.2020 18:00:00 17,1 10,2 27 14 50 27 SW 1019,4 - 0,0
29.10.2020 17:00:00 16,8 10,9 18 10 48 26 WSW 1019,3 - 0,0
29.10.2020 16:00:00 18,0 10,4 29 16 59 32 SW 1019,2 - 0,0
29.10.2020 15:00:00 17,5 11,3 29 16 76 41 WSW 1018,4 - 0,0
29.10.2020 14:00:00 17,3 11,8 52 28 84 46 WSW 1017,3 - 0,0
29.10.2020 13:00:00 18,2 10,6 44 24 80 43 W 1018,3 - 0,0
29.10.2020 12:00:00 18,7 9,5 46 25 89 48 WSW 1018,6 - 0,0
29.10.2020 11:00:00 18,6 9,9 44 24 96 52 WSW 1018,1 - 0,0
29.10.2020 10:00:00 17,7 9,8 63 34 99 54 WSW 1017,0 15 0,0
29.10.2020 09:00:00 17,7 10,1 55 30 98 53 WSW 1016,7 - 0,0
29.10.2020 08:00:00 17,4 10,5 48 26 96 52 WSW 1017,5 - 0,0
29.10.2020 07:00:00 17,8 9,4 53 28 89 48 WSW 1016,6 20 0,0
29.10.2020 06:00:00 18,0 9,9 55 30 87 47 WSW 1016,7 - 0,0
29.10.2020 05:00:00 17,9 9,8 54 29 84 45 WSW 1016,6 - 0,0
29.10.2020 04:00:00 17,9 10,5 45 24 87 47 WSW 1017,2 20 0,0
29.10.2020 03:00:00 17,4 11,0 58 32 93 50 WSW 1017,3 - 0,0
29.10.2020 02:00:00 17,8 9,7 42 23 72 39 WSW 1017,6 - 0,0
29.10.2020 01:00:00 18,3 8,3 46 25 78 42 SW 1017,8 20 0,0
29.10.2020 00:00:00 18,4 7,8 43 23 71 38 SW 1018,1 - 0,0
28.10.2020 23:00:00 18,3 8,0 43 23 66 36 SW 1018,2 - 0,0
28.10.2020 22:00:00 17,6 7,6 42 23 65 35 SW 1018,4 - 0,0
28.10.2020 21:00:00 16,6 6,7 45 24 66 36 SW 1018,4 - 0,0
28.10.2020 20:00:00 16,0 7,5 27 15 63 34 WSW 1018,9 - 0,0
28.10.2020 19:00:00 15,5 7,8 24 13 45 25 WSW 1018,6 20 0,0
28.10.2020 18:00:00 15,6 7,6 24 13 58 31 WSW 1017,9 - 0,0
28.10.2020 17:00:00 16,4 10,7 36 19 63 34 WSW 1017,8 - 0,0
28.10.2020 16:00:00 18,0 11,1 26 14 59 32 WSW 1017,7 - 0,0
28.10.2020 15:00:00 18,2 11,3 32 17 55 30 W 1017,3 - 0,0
28.10.2020 14:00:00 18,3 10,6 29 16 50 27 WSW 1017,6 - 0,0
28.10.2020 13:00:00 17,7 10,3 23 12 37 20 W 1018,1 20 0,0
28.10.2020 12:00:00 17,4 9,6 20 11 33 18 W 1018,6 - 0,0
28.10.2020 11:00:00 16,7 9,6 17 9 25 13 W 1018,2 - 0,0
28.10.2020 10:00:00 16,4 8,1 11 6 24 13 WSW 1018,3 - 0,0
28.10.2020 09:00:00 15,4 8,2 13 7 23 12 WSW 1018,1 - 0,0
28.10.2020 08:00:00 14,2 6,8 16 9 23 13 WSW 1017,7 - 0,0
28.10.2020 07:00:00 13,7 6,5 18 10 27 15 WSW 1016,7 20 0,0
28.10.2020 06:00:00 14,0 5,6 13 7 19 10 WSW 1016,7 - 0,0
28.10.2020 05:00:00 14,4 4,1 7 4 14 8 W 1016,2 - 0,0
28.10.2020 04:00:00 14,5 4,5 9 5 16 8 SW 1015,9 18 0,0
28.10.2020 03:00:00 14,6 5,1 8 4 22 12 WSW 1015,9 - 0,0
28.10.2020 02:00:00 14,2 5,5 18 10 27 15 SW 1016,0 - 0,0
28.10.2020 01:00:00 14,3 5,4 22 12 35 19 SW 1015,7 - 0,0
28.10.2020 00:00:00 14,2 5,0 28 15 42 23 SW 1015,3 - 0,0
27.10.2020 23:00:00 14,1 4,9 23 13 37 20 SW 1015,1 - 0,0
27.10.2020 22:00:00 14,1 4,7 23 13 42 23 SW 1015,0 - 0,0
27.10.2020 21:00:00 14,1 4,9 24 13 41 22 SW 1014,1 - 0,0
27.10.2020 20:00:00 14,0 4,8 24 13 44 24 WSW 1013,3 - 0,0
27.10.2020 19:00:00 13,7 6,5 27 15 64 35 SW 1012,7 18 0,0
27.10.2020 18:00:00 14,0 6,6 44 24 79 43 WSW 1011,6 - 0,0
27.10.2020 17:00:00 14,0 6,6 43 23 77 42 WSW 1010,9 - 0,0
27.10.2020 16:00:00 15,6 7,4 39 21 79 43 WSW 1010,3 15 0,0
27.10.2020 15:00:00 16,0 8,0 37 20 72 39 WSW 1010,4 - 0,0
27.10.2020 14:00:00 16,2 7,4 41 22 81 44 WSW 1009,9 20 0,0
27.10.2020 13:00:00 16,4 7,3 44 24 77 41 WSW 1009,9 - 0,0
27.10.2020 12:00:00 15,8 8,0 37 20 66 35 WSW 1010,5 - 0,0
27.10.2020 11:00:00 14,3 7,1 40 21 77 41 WSW 1011,0 - 0,0
27.10.2020 10:00:00 14,4 7,9 38 21 78 42 WSW 1010,0 - 0,0
27.10.2020 09:00:00 13,8 7,1 42 23 83 45 WSW 1009,7 - 0,0
27.10.2020 08:00:00 13,7 6,8 48 26 83 45 WSW 1008,9 - 0,0
27.10.2020 07:00:00 13,6 7,4 50 27 85 46 WSW 1008,1 15 0,0
27.10.2020 06:00:00 13,6 7,6 47 25 93 50 WSW 1007,8 - 0,0
27.10.2020 05:00:00 13,9 7,6 51 28 93 50 WSW 1007,0 - 0,0
27.10.2020 04:00:00 14,0 7,7 53 29 95 52 WSW 1006,8 15 0,0
27.10.2020 03:00:00 14,0 8,0 58 31 91 49 WSW 1006,5 - 0,0
27.10.2020 02:00:00 14,3 8,3 44 24 77 42 WSW 1007,4 - 0,0
27.10.2020 01:00:00 14,5 7,5 48 26 81 44 WSW 1007,1 15 0,0
27.10.2020 00:00:00 14,5 7,5 44 24 89 48 WSW 1007,1 - 0,0
26.10.2020 23:00:00 14,6 6,9 48 26 82 45 WSW 1007,0 - 0,0
26.10.2020 22:00:00 14,3 8,7 51 27 91 49 SW 1006,8 10 0,0
26.10.2020 21:00:00 14,0 9,6 48 26 89 48 SW 1006,5 - 0,0
26.10.2020 20:00:00 13,9 9,9 34 18 65 35 WSW 1006,2 - 0,0
26.10.2020 19:00:00 15,6 6,8 36 19 58 31 SSW 1005,1 - 0,0
26.10.2020 18:00:00 14,4 9,0 16 8 39 21 SW 1006,5 - 0,4
26.10.2020 17:00:00 12,9 9,5 29 15 44 24 SSW 1006,4 - 1,4
26.10.2020 16:00:00 12,3 11,0 32 18 58 31 SW 1006,8 - 0,8
26.10.2020 15:00:00 12,5 12,0 39 21 93 50 WSW 1007,6 - 0,0
26.10.2020 14:00:00 20,4 11,3 34 18 58 32 WSW 1003,9 - 0,0
26.10.2020 13:00:00 22,1 11,5 13 7 40 22 WSW 1004,8 20 0,0
26.10.2020 12:00:00 21,8 11,8 15 8 33 18 WNW 1005,7 - 0,0
26.10.2020 11:00:00 20,3 11,0 11 6 20 11 ENE 1006,6 - 0,0
26.10.2020 10:00:00 19,5 9,9 11 6 15 8 ENE 1006,8 - 0,0
26.10.2020 09:00:00 18,9 9,7 13 7 25 13 SE 1007,2 - 0,0
26.10.2020 08:00:00 17,2 10,8 12 6 19 10 E 1007,9 - 0,0
26.10.2020 07:00:00 18,5 8,5 8 4 14 8 WNW 1007,8 - 0,0
26.10.2020 06:00:00 18,1 8,9 14 7 22 12 SSE 1008,5 - 0,0
26.10.2020 05:00:00 17,7 9,3 13 7 17 9 ESE 1009,3 - 0,0
26.10.2020 04:00:00 17,7 9,6 13 7 18 10 SE 1010,0 20 0,0
26.10.2020 03:00:00 17,7 9,6 9 5 17 9 ESE 1010,9 - 0,0
26.10.2020 02:00:00 17,6 9,7 10 6 15 8 SE 1011,5 - 0,0
26.10.2020 01:00:00 17,4 9,6 3 2 11 6 E 1012,3 - 0,0
26.10.2020 00:00:00 17,9 10,0 8 4 18 10 SSE 1012,5 - 0,0
25.10.2020 23:00:00 17,5 10,1 15 8 21 11 SE 1013,2 - 0,0
25.10.2020 22:00:00 17,7 10,3 10 5 14 8 SSE 1013,5 - 0,0

tt = Température de l'air
td = dewpoint
ff = Vitesse du vent
fx = gusts
dd = Direction du vent
ppp = reduced air pressure
vv = visibility
rr = Quantités de précipitations

stations d'obs. à proximité